Snoqualmie River Flood Gauge Status

Sum of the 3 forks - Station Details,
Latest reading:
Wed03/20 06:15 pm 1870 cfs (+96/hr)
Past 24hr max:
Wed03/20 06:15 pm 1870 cfs
Forecasted crests: (published Wed 03/20/19 03:17 pm)
Thu03/21 05:00 am 2231 cfs
Thu03/21 11:00 pm 2190 cfs
Sat03/23 11:00 am 3740 cfs
Tue03/26 11:00 am 3061 cfs
Thu03/28 05:00 am 2488 cfs
Snoqualmie Falls station - Station Details,
flood stage: 12.88 ft
Latest reading:
Wed03/20 06:55 pm 5.58 ft 2398 cfs (+132/hr)
Past 24hr max:
Wed03/20 11:20 am 5.61 ft 2429 cfs
Forecasted crests: (published Wed 03/20/19 03:17 pm)
Thu03/21 05:00 am 6.01 ft 2870 cfs
Fri03/22 05:00 am 5.94 ft 2796 cfs
Sat03/23 05:00 pm 7.05 ft 4306 cfs
Tue03/26 05:00 pm 6.6 ft 3616 cfs
Thu03/28 05:00 am 6.14 ft 3026 cfs
Carnation station - Station Details,
flood stage: 54.0 ft
Latest reading:
Wed03/20 06:15 pm 46.87 ft 3458 cfs (+100/hr)
Past 24hr max:
Wed03/20 11:15 am 46.88 ft 3484 cfs
Forecasted crests: (published Wed 03/20/19 03:17 pm)
Thu03/21 05:00 am 47.07 ft 3990 cfs
Fri03/22 05:00 am 47.01 ft 3819 cfs
Sat03/23 05:00 pm 47.54 ft 5378 cfs
Tue03/26 05:00 pm 47.27 ft 4549 cfs
Thu03/28 05:00 am 47.02 ft 3846 cfs

Snoqualmie River flood gauge data supplied by the
National Weather Service Northwest River Forecast Center.

Sign up for Floodzilla alerts.